Location: Kerb�bon
(47.7970°N, 3.3487°W)
Time: 11:45:03
(UTC+00:00)

USA 306 - Pass Details

Date: 12 May 2021
Orbit: 565 x 575 km, 54.0° (Epoch: 11 May)

Event Time Altitude Azimuth Distance (km) Brightness Sun altitude
Rises 20:40:35 0° 299° (WNW) 2,771 8.4 -9.0°
Reaches altitude 10° 20:42:51 10° 302° (WNW) 1,874 7.1 -9.3°
Maximum altitude 20:47:06 66° 25° (NNE) 626 3.2 -9.8°
Enters shadow 20:51:02 12° 108° (ESE) 1,752 4.8 -10.3°
